STARLINK-31088, 58604

Orbit data source: Space-Track

STARLINK-31088, 58604 is a payload satellite owned by SpaceX/Seattle (US) in LEO that was launched on Tue, 19 Dec 2023 UTC via an FALCON 9 launch vehicle from the Air Force Eastern Test Range (AFETR). Payload-class satellites include a variety of spacecraft equipped with specific instruments for various scientific and technological missions. These include communications satellites like Starlink; space stations such as the ISS; scientific satellites like the Hubble; Earth observation satellites from companies like Planet Labs, Umbra, and HawkEye 360; GPS; miniature CubeSats for education and research; and military/defense satellites.

Loading next visibility...
Identifier
58604, 2023-200R
Orbit
LEO
Country
Flag of USUS
Related business
Manufacturer
SpaceX/Seattle
Mission
Operational Commercial Communications
Bus & Motor
STARLINK V2M, Unknown motor
Mass
730 kg wet, ~700 kg dry
Launch date (UTC)
2023-12-19 (3 years ago)
Launch vehicle
FALCON 9
Launch site
Air Force Eastern Test Range (AFETR)
Object type
Payload
Rocket body
Debris
Shape & HBR
Box + 2 Pan, 17.7 m
Radar Cross Section
33.884 m², Large (>1 m²)

Expand to show TLE details & history
Last TLE update: 2 days ago

TLE from 2 days ago
0 STARLINK-31088
1 58604U 23200R   26171.41958354 -.00001229  00000-0 -35137-4 0  9995
2 58604  43.0020 308.5349 0001257 265.8577  94.2131 15.27586313139320
Epoch: 2026-06-20T10:04Z
TLE epoch observation values (Epoch: 2026-06-20T10:04:12.017Z)
Latitude
-0.00004°
Longitude
-111.14968°
Altitude
482.869 km
Speed
7.626 km/s
True Right ascension
20h 34m 08s
True Declination
0° 00' 00"
Sunlit
Object was in full shadow at epoch
Visualization orbit readout
Latitude
Unknown
Longitude
Unknown
Altitude
Unknown
Speed
Unknown
Apparent Right ascension
Unknown
Apparent Declination
Unknown
Sunlit
N/A
Visualization observer readout
Local Sidereal Time
21:24:57
Azimuth
Unknown
Elevation
Unknown
Doppler factor
Unknown
Orbital elements
Apogee altitude
485.838 km
Perigee altitude
484.112 km
Semi-major axis
6,863.112 km
Eccentricity
0.00013
Inclination
43.002°
RAAN
308.5349°
Arg. of periapsis
265.8577°
True anomaly
94.22747°
Mean anomaly
94.2131°
Eccentric anomaly
94.22028°
Mean motion
3.81735 °/min
Orbital period
94.31 mins
BSTAR
-0.000035137
Loading maneuver chart data...
Computing Atmospheric mass density...
Loading historical data...
Loading historical data...
Loading historical data...
Loading historical data...
Loading historical data...
Loading historical data...
Loading historical data...

Documentation

Showing up to 5 results
|